Weather History for Denver, CO

Change the Weather History Date:

Friday, May 11, 2012

  Actual Average (KDEN) Record (KDEN)
Temperature  
Mean Temperature 46 °F 55 °F  
Max Temperature 55 °F 70 °F 90 °F (1961)
Min Temperature 37 °F 41 °F 28 °F (1946)
Degree Days  
Heating Degree Days 19 10  
Month to date heating degree days 128  
Since 1 July heating degree days 5859  
Cooling Degree Days 0 0  
Month to date cooling degree days 0  
Year to date cooling degree days 1  
Moisture  
Dew Point 31 °F    
Average Humidity 64    
Maximum Humidity 93    
Minimum Humidity 43    
Precipitation  
Precipitation 0.00 in 0.06 in 1.55 in (2011)
Month to date precipitation 0.73  
Year to date precipitation 4.14  
Snow  
Snow 0.00 in - - ()
Month to date snowfall  
Since 1 July snowfall  
Snow Depth -    
Sea Level Pressure  
Sea Level Pressure 30.24 in    
Wind  
Wind Speed 15 mph (NNE)    
Max Wind Speed 37 mph    
Max Gust Speed 43 mph    
Visibility 10 miles    
Events Rain    
T = Trace of Precipitation, MM = Missing Value Source: NWS Daily Summary

Daily Weather History Graph

Daily Weather History Graph

Search for Another Location

Airport:

Trip Planner

Search our weather history database for the weather conditions in past years. The results will help you decide how hot, cold, wet, or windy it might be!

Date:

Astronomy

May. 11, 2012 Rise Set
Actual Time 5:46 AM MDT 8:02 PM MDT
Civil Twilight 5:16 AM MDT 8:33 PM MDT
Nautical Twilight 4:39 AM MDT 9:10 PM MDT
Astronomical Twilight 3:58 AM MDT 9:51 PM MDT
Moon 12:44 AM MDT (5/11) 11:22 AM MDT (5/11)
Length of Visible Light 15h 16m
Length of Day
14h 16m
Waning Gibbous, 62% of the Moon is Illuminated
May 11
Waning Gibbous
May 12
Last Quarter
May 20
New
May 28
First Quarter
Jun 4
Full

Hourly Weather History & Observations

Time (MDT) Temp. Windchill Dew Point Humidity Pressure Visibility Wind Dir Wind Speed Gust Speed Precip Events Conditions
12:02 AM 55.4 °F - 37.4 °F 51% 29.99 in 10.0 mi NNE 23.0 mph 28.8 mph N/A Rain Light Rain
12:22 AM 53.6 °F - 35.6 °F 51% 29.95 in 10.0 mi NNE 36.8 mph 42.6 mph N/A   Mostly Cloudy
12:42 AM 51.8 °F - 35.6 °F 54% 29.97 in 10.0 mi North 29.9 mph 42.6 mph N/A   Scattered Clouds
1:02 AM 50.0 °F - 35.6 °F 58% 30.02 in 10.0 mi North 27.6 mph 33.4 mph N/A   Clear
1:22 AM 46.4 °F 38.5 °F 35.6 °F 66% 30.05 in 10.0 mi North 21.9 mph 32.2 mph N/A   Clear
1:42 AM 46.4 °F 39.5 °F 35.6 °F 66% 30.09 in 10.0 mi North 17.3 mph - N/A   Clear
2:02 AM 44.6 °F 36.6 °F 33.8 °F 66% 30.10 in 10.0 mi North 19.6 mph - N/A   Scattered Clouds
2:22 AM 44.6 °F 38.1 °F 33.8 °F 66% 30.12 in 10.0 mi North 13.8 mph 20.7 mph N/A   Overcast
2:42 AM 44.6 °F 37.2 °F 33.8 °F 66% 30.12 in 10.0 mi North 17.3 mph 21.9 mph N/A   Overcast
3:02 AM 44.6 °F 37.4 °F 33.8 °F 66% 30.13 in 10.0 mi North 16.1 mph - N/A   Overcast
3:22 AM 44.6 °F 37.8 °F 33.8 °F 66% 30.14 in 10.0 mi North 15.0 mph - N/A   Overcast
3:43 AM 42.8 °F 36.6 °F 33.8 °F 70% 30.16 in 10.0 mi North 11.5 mph - N/A   Overcast
4:03 AM 42.8 °F 37.0 °F 32.0 °F 66% 30.16 in 10.0 mi North 10.4 mph - N/A   Overcast
4:23 AM 42.8 °F 36.6 °F 32.0 °F 66% 30.17 in 10.0 mi North 11.5 mph - N/A   Overcast
4:43 AM 42.8 °F 36.6 °F 32.0 °F 66% 30.18 in 10.0 mi North 11.5 mph 18.4 mph N/A   Overcast
5:03 AM 42.8 °F 36.2 °F 32.0 °F 66% 30.19 in 10.0 mi North 12.7 mph - N/A   Overcast
5:22 AM 42.8 °F 36.6 °F 30.2 °F 61% 30.20 in 10.0 mi North 11.5 mph - N/A   Overcast
5:43 AM 41.0 °F 33.5 °F 28.4 °F 61% 30.20 in 10.0 mi North 13.8 mph - N/A   Overcast
6:03 AM 41.0 °F 34.3 °F 28.4 °F 61% 30.22 in 10.0 mi NNE 11.5 mph - N/A   Overcast
6:23 AM 41.0 °F 33.1 °F 28.4 °F 61% 30.22 in 10.0 mi NNE 15.0 mph - N/A   Overcast
6:43 AM 41.0 °F 33.9 °F 28.4 °F 61% 30.22 in 10.0 mi NNE 12.7 mph - N/A   Overcast
7:03 AM 41.0 °F 34.3 °F 28.4 °F 61% 30.24 in 10.0 mi NNE 11.5 mph - N/A   Overcast
7:23 AM 41.0 °F 35.2 °F 28.4 °F 61% 30.24 in 10.0 mi NNE 9.2 mph - N/A   Overcast
7:42 AM 41.0 °F 35.2 °F 28.4 °F 61% 30.25 in 1.8 mi NNE 9.2 mph - N/A   Haze
8:03 AM 41.0 °F 35.2 °F 28.4 °F 61% 30.26 in 10.0 mi NNE 9.2 mph - N/A   Overcast
8:23 AM 41.0 °F 34.3 °F 28.4 °F 61% 30.27 in 10.0 mi NE 11.5 mph - N/A   Overcast
8:43 AM 41.0 °F 34.3 °F 28.4 °F 61% 30.27 in 10.0 mi NNE 11.5 mph - N/A   Overcast
9:03 AM 42.8 °F 35.8 °F 28.4 °F 57% 30.28 in 10.0 mi NNE 13.8 mph - N/A   Overcast
9:22 AM 42.8 °F 34.8 °F 24.8 °F 49% 30.28 in 10.0 mi NNE 17.3 mph - N/A   Overcast
9:43 AM 42.8 °F 35.8 °F 24.8 °F 49% 30.29 in 10.0 mi NE 13.8 mph 23.0 mph N/A   Overcast
10:03 AM 44.6 °F 37.8 °F 26.6 °F 49% 30.29 in 10.0 mi NE 15.0 mph - N/A   Overcast
10:23 AM 44.6 °F 39.2 °F 28.4 °F 53% 30.29 in 10.0 mi NE 10.4 mph 16.1 mph N/A   Overcast
10:43 AM 44.6 °F 38.4 °F 28.4 °F 53% 30.30 in 10.0 mi NE 12.7 mph 18.4 mph N/A   Overcast
11:03 AM 44.6 °F 39.2 °F 28.4 °F 53% 30.30 in 10.0 mi NNE 10.4 mph - N/A   Overcast
11:23 AM 44.6 °F 39.7 °F 28.4 °F 53% 30.30 in 10.0 mi NNE 9.2 mph - N/A   Overcast
11:43 AM 44.6 °F 39.7 °F 28.4 °F 53% 30.30 in 10.0 mi ENE 9.2 mph - N/A   Overcast
12:02 PM 44.6 °F 40.2 °F 28.4 °F 53% 30.30 in 10.0 mi North 8.1 mph - N/A   Overcast
12:23 PM 44.6 °F 43.1 °F 28.4 °F 53% 30.31 in 10.0 mi ENE 3.5 mph 9.2 mph N/A   Overcast
12:43 PM 44.6 °F 39.2 °F 28.4 °F 53% 30.30 in 10.0 mi ENE 10.4 mph - N/A   Overcast
1:03 PM 46.4 °F - 28.4 °F 50% 30.30 in 10.0 mi Calm Calm - N/A   Overcast
1:22 PM 46.4 °F 42.9 °F 28.4 °F 50% 30.29 in 10.0 mi NE 6.9 mph - N/A   Overcast
1:43 PM 46.4 °F 43.5 °F 28.4 °F 50% 30.29 in 10.0 mi East 5.8 mph - N/A   Overcast
2:03 PM 46.4 °F 42.4 °F 28.4 °F 50% 30.28 in 10.0 mi NE 8.1 mph 18.4 mph N/A   Overcast
2:23 PM 48.2 °F - 28.4 °F 46% 30.28 in 10.0 mi ENE 3.5 mph - N/A   Overcast
2:43 PM 46.4 °F - 28.4 °F 50% 30.28 in 10.0 mi Calm Calm - N/A   Overcast
3:03 PM 48.2 °F - 28.4 °F 46% 30.28 in 10.0 mi NNE 3.5 mph - N/A   Overcast
3:23 PM 50.0 °F - 28.4 °F 43% 30.28 in 10.0 mi ENE 6.9 mph - N/A   Overcast
3:43 PM 46.4 °F - 28.4 °F 50% 30.27 in 10.0 mi Calm Calm - N/A   Overcast
4:03 PM 44.6 °F 38.4 °F 32.0 °F 61% 30.26 in 10.0 mi WNW 12.7 mph - N/A   Overcast
4:23 PM 44.6 °F - 32.0 °F 61% 30.24 in 10.0 mi Calm Calm - N/A   Overcast
4:43 PM 46.4 °F 41.5 °F 32.0 °F 57% 30.24 in 10.0 mi East 10.4 mph 20.7 mph N/A Rain Light Rain
4:55 PM 42.8 °F 34.8 °F 35.6 °F 76% 30.27 in 10.0 mi North 17.3 mph 23.0 mph N/A   Light Drizzle
5:03 PM 44.6 °F 37.2 °F 33.8 °F 66% 30.27 in 10.0 mi NW 17.3 mph 23.0 mph N/A   Light Drizzle
5:23 PM 37.4 °F 28.2 °F 33.8 °F 87% 30.29 in 10.0 mi NW 16.1 mph - N/A   Overcast
5:43 PM 39.2 °F 31.2 °F 33.8 °F 81% 30.29 in 10.0 mi North 13.8 mph - N/A   Overcast
5:55 PM 39.2 °F 33.6 °F 32.0 °F 75% 30.30 in 10.0 mi NW 8.1 mph - N/A   Overcast
6:03 PM 37.4 °F 30.3 °F 32.0 °F 81% 30.30 in 10.0 mi NNW 10.4 mph - N/A   Overcast
6:23 PM 37.4 °F 32.1 °F 32.0 °F 81% 30.29 in 10.0 mi North 6.9 mph - N/A   Overcast
6:43 PM 39.2 °F 33.6 °F 32.0 °F 75% 30.28 in 10.0 mi NE 8.1 mph - N/A   Overcast
6:55 PM 39.2 °F 33.6 °F 32.0 °F 75% 30.27 in 10.0 mi North 8.1 mph - N/A   Overcast
7:03 PM 39.2 °F 33.0 °F 32.0 °F 75% 30.27 in 10.0 mi NNE 9.2 mph - N/A   Overcast
7:23 PM 41.0 °F 34.7 °F 32.0 °F 70% 30.27 in 10.0 mi East 10.4 mph - N/A   Overcast
7:42 PM 41.0 °F 34.7 °F 32.0 °F 70% 30.28 in 10.0 mi ESE 10.4 mph - N/A   Overcast
7:55 PM 41.0 °F 36.4 °F 32.0 °F 70% 30.29 in 10.0 mi East 6.9 mph - N/A   Overcast
8:02 PM 41.0 °F 37.1 °F 32.0 °F 70% 30.29 in 10.0 mi East 5.8 mph - N/A   Overcast
8:23 PM 41.0 °F 35.2 °F 32.0 °F 70% 30.29 in 10.0 mi ESE 9.2 mph - N/A   Overcast
9:03 PM 41.0 °F 35.2 °F 32.0 °F 70% 30.30 in 10.0 mi SSE 9.2 mph - N/A   Overcast
9:23 PM 41.0 °F 34.7 °F 32.0 °F 70% 30.31 in 10.0 mi SE 10.4 mph - N/A   Overcast
9:42 PM 41.0 °F 33.1 °F 33.8 °F 76% 30.30 in 10.0 mi SSE 15.0 mph - N/A Rain Light Rain
10:02 PM 39.2 °F 30.2 °F 35.6 °F 87% 30.29 in 10.0 mi SE 17.3 mph 20.7 mph N/A Rain Light Rain
10:22 PM 37.4 °F 34.9 °F 35.6 °F 93% 30.31 in 10.0 mi South 3.5 mph - N/A   Drizzle
10:42 PM 39.2 °F 35.0 °F 35.6 °F 87% 30.30 in 10.0 mi ESE 5.8 mph - N/A Rain Light Rain
11:22 PM 39.2 °F 33.6 °F 35.6 °F 87% 30.31 in 10.0 mi East 8.1 mph - N/A   Overcast
11:43 PM 37.4 °F 31.4 °F 35.6 °F 93% 30.32 in 10.0 mi East 8.1 mph - N/A   Overcast